Location: St. Louis
(38.6270°N, 90.1994°W)
Time: 13:26:56
(UTC-06:00)

Vanguard 1 - Visible Passes

Search period start: 29 January 2023 00:00
Search period end: 08 February 2023 00:00
Orbit: 649 x 3831 km, 34.2° (Epoch: 28 January)

Date Brightness Start Highest point End Pass type
(mag) Time Alt. Az. Time Alt. Az. Time Alt. Az.
29 Jan 12.6 03:30:27 13° SSE 03:33:12 15° SE 03:38:18 10° E visible
29 Jan 12.0 05:44:05 10° SW 05:52:20 53° SSE 06:07:33 10° E visible
30 Jan 12.2 03:50:21 19° SSE 03:53:03 22° SE 04:00:48 10° E visible
30 Jan 11.9 06:04:17 10° WSW 06:12:50 61° SSE 06:28:56 10° E visible
31 Jan 11.9 04:10:11 24° S 04:13:01 30° SE 04:22:35 10° E visible
31 Jan 11.9 06:24:37 10° WSW 06:33:28 68° SSE 06:50:18 10° E visible
01 Feb 11.6 04:29:58 28° S 04:33:09 39° SSE 04:44:03 10° E visible
02 Feb 11.4 04:49:42 29° SSW 04:53:27 49° SSE 05:05:24 10° E visible
03 Feb 12.6 02:56:42 16° ESE 02:56:42 16° ESE 02:59:41 10° E visible
03 Feb 11.3 05:09:23 26° SW 05:13:52 58° SSE 05:26:40 10° E visible
04 Feb 12.1 03:16:21 23° ESE 03:16:21 23° ESE 03:21:28 10° E visible
04 Feb 11.3 05:29:03 21° WSW 05:34:26 65° SSE 05:47:56 10° E visible
05 Feb 11.6 03:35:58 32° SE 03:35:58 32° SE 03:42:52 10° E visible
05 Feb 11.3 05:48:40 16° WSW 05:55:04 69° S 06:09:12 10° E visible
06 Feb 11.1 03:55:34 43° SE 03:55:34 43° SE 04:04:06 10° E visible
06 Feb 11.4 06:08:15 11° W 06:15:47 70° S 06:30:27 10° E visible
07 Feb 10.7 04:15:08 52° S 04:15:27 53° SSE 04:25:14 10° E visible
07 Feb 11.5 06:28:36 10° W 06:36:30 69° S 06:51:40 10° ESE visible
